,,PressureMeas_1m,,PRMeasQMR101_1,,RHStat155_1m_1,,SRMeasQMS101R_1m,,TAStat155_1m_1,,GenWind_1,,GenWind_1,
2019-09-09, 00:00:06,VALID,919.617,VALID,0.0,VALID,99.844,VALID,0.005,VALID,20.495,INVALID,360.0,VALID,0.0,
2019-09-09, 00:01:06,VALID,919.609,VALID,0.0,VALID,99.861,VALID,0.001,VALID,20.493,INVALID,360.0,VALID,0.0,
2019-09-09, 00:02:06,VALID,919.598,VALID,0.0,VALID,99.866,VALID,0.015,VALID,20.507,INVALID,360.0,VALID,0.0,
2019-09-09, 00:03:06,VALID,919.577,VALID,0.0,VALID,99.871,VALID,-0.001,VALID,20.508,INVALID,360.0,VALID,0.0,
2019-09-09, 00:04:06,VALID,919.579,VALID,0.0,VALID,99.862,VALID,-0.004,VALID,20.523,INVALID,360.0,VALID,0.0,
2019-09-09, 00:05:06,VALID,919.583,VALID,0.0,VALID,99.892,VALID,0.018,VALID,20.513,INVALID,360.0,VALID,0.0,
2019-09-09, 00:06:06,VALID,919.575,VALID,0.0,VALID,99.873,VALID,0.002,VALID,20.518,INVALID,360.0,VALID,0.0,
2019-09-09, 00:07:06,VALID,919.618,VALID,0.0,VALID,99.869,VALID,0.005,VALID,20.516,INVALID,360.0,VALID,0.0,
2019-09-09, 00:08:06,VALID,919.618,VALID,0.0,VALID,99.863,VALID,-0.001,VALID,20.505,INVALID,360.0,VALID,0.0,
2019-09-09, 00:09:06,VALID,919.627,VALID,0.0,VALID,99.877,VALID,0.0,VALID,20.52,INVALID,360.0,VALID,0.0,
2019-09-09, 00:10:06,VALID,919.61,VALID,0.0,VALID,99.885,VALID,0.004,VALID,20.504,INVALID,360.0,VALID,0.0,
2019-09-09, 00:11:06,VALID,919.619,VALID,0.0,VALID,99.869,VALID,0.006,VALID,20.496,INVALID,360.0,VALID,0.0,
2019-09-09, 00:12:06,VALID,919.613,VALID,0.0,VALID,99.876,VALID,0.004,VALID,20.483,INVALID,360.0,VALID,0.0,
2019-09-09, 00:13:06,VALID,919.594,VALID,0.0,VALID,99.878,VALID,0.009,VALID,20.491,VALID,51.0,VALID,0.0,
2019-09-09, 00:14:06,VALID,919.573,VALID,0.0,VALID,99.877,VALID,0.013,VALID,20.454,INVALID,360.0,VALID,0.0,
2019-09-09, 00:15:06,VALID,919.555,VALID,0.0,VALID,99.869,VALID,0.011,VALID,20.425,INVALID,360.0,VALID,0.0,
2019-09-09, 00:16:06,VALID,919.571,VALID,0.0,VALID,99.874,VALID,0.01,VALID,20.437,INVALID,360.0,VALID,0.0,
2019-09-09, 00:17:06,VALID,919.547,VALID,0.0,VALID,99.89,VALID,0.003,VALID,20.477,INVALID,360.0,VALID,0.0,
2019-09-09, 00:18:06,VALID,919.553,VALID,0.0,VALID,99.89,VALID,0.006,VALID,20.488,INVALID,360.0,VALID,0.0,
2019-09-09, 00:19:06,VALID,919.544,VALID,0.0,VALID,99.885,VALID,-0.004,VALID,20.499,INVALID,360.0,VALID,0.0,
2019-09-09, 00:20:06,VALID,919.544,VALID,0.0,VALID,99.898,VALID,0.005,VALID,20.489,INVALID,360.0,VALID,0.0,
2019-09-09, 00:21:06,VALID,919.554,VALID,0.0,VALID,99.899,VALID,0.004,VALID,20.517,INVALID,360.0,VALID,0.0,
2019-09-09, 00:22:06,VALID,919.552,VALID,0.0,VALID,99.893,VALID,0.004,VALID,20.529,INVALID,360.0,VALID,0.0,
2019-09-09, 00:23:06,VALID,919.575,VALID,0.0,VALID,99.9,VALID,-0.006,VALID,20.519,INVALID,360.0,VALID,0.0,
2019-09-09, 00:24:06,VALID,919.566,VALID,0.0,VALID,99.884,VALID,0.0,VALID,20.526,INVALID,360.0,VALID,0.0,
2019-09-09, 00:25:06,VALID,919.556,VALID,0.0,VALID,99.89,VALID,0.011,VALID,20.533,INVALID,360.0,VALID,0.0,
2019-09-09, 00:26:06,VALID,919.546,VALID,0.0,VALID,99.896,VALID,0.01,VALID,20.546,INVALID,360.0,VALID,0.0,
2019-09-09, 00:27:06,VALID,919.533,VALID,0.0,VALID,99.884,VALID,0.004,VALID,20.519,INVALID,360.0,VALID,0.0,
2019-09-09, 00:28:06,VALID,919.547,VALID,0.0,VALID,99.901,VALID,-0.001,VALID,20.488,INVALID,360.0,VALID,0.0,
2019-09-09, 00:29:06,VALID,919.575,VALID,0.0,VALID,99.903,VALID,-0.011,VALID,20.455,INVALID,360.0,VALID,0.0,
2019-09-09, 00:30:06,VALID,919.555,VALID,0.0,VALID,99.896,VALID,-0.015,VALID,20.451,INVALID,360.0,VALID,0.0,
2019-09-09, 00:31:06,VALID,919.561,VALID,0.0,VALID,99.906,VALID,-0.017,VALID,20.513,INVALID,360.0,VALID,0.0,
2019-09-09, 00:32:06,VALID,919.559,VALID,0.0,VALID,99.906,VALID,-0.0,VALID,20.537,INVALID,360.0,VALID,0.0,
2019-09-09, 00:33:06,VALID,919.577,VALID,0.0,VALID,99.895,VALID,0.006,VALID,20.511,INVALID,360.0,VALID,0.0,
2019-09-09, 00:34:06,VALID,919.546,VALID,0.0,VALID,99.91,VALID,0.003,VALID,20.529,INVALID,360.0,VALID,0.0,
2019-09-09, 00:35:06,VALID,919.53,VALID,0.0,VALID,99.915,VALID,0.01,VALID,20.464,INVALID,360.0,VALID,0.0,
2019-09-09, 00:36:06,VALID,919.519,VALID,0.0,VALID,99.895,VALID,0.016,VALID,20.449,INVALID,360.0,VALID,0.0,
2019-09-09, 00:37:06,VALID,919.489,VALID,0.0,VALID,99.912,VALID,0.02,VALID,20.448,INVALID,360.0,VALID,0.0,
2019-09-09, 00:38:06,VALID,919.486,VALID,0.0,VALID,99.901,VALID,0.016,VALID,20.435,INVALID,360.0,VALID,0.0,
2019-09-09, 00:39:06,VALID,919.482,VALID,0.0,VALID,99.907,VALID,0.011,VALID,20.437,INVALID,360.0,VALID,0.0,
2019-09-09, 00:40:06,VALID,919.463,VALID,0.0,VALID,99.906,VALID,0.026,VALID,20.448,INVALID,360.0,VALID,0.0,
2019-09-09, 00:41:06,VALID,919.465,VALID,0.0,VALID,99.908,VALID,0.014,VALID,20.436,INVALID,360.0,VALID,0.0,
2019-09-09, 00:42:06,VALID,919.452,VALID,0.0,VALID,99.907,VALID,0.01,VALID,20.408,INVALID,360.0,VALID,0.0,
2019-09-09, 00:43:06,VALID,919.441,VALID,0.0,VALID,99.894,VALID,0.026,VALID,20.385,INVALID,360.0,VALID,0.0,
2019-09-09, 00:44:06,VALID,919.427,VALID,0.0,VALID,99.895,VALID,0.007,VALID,20.373,INVALID,360.0,VALID,0.0,
2019-09-09, 00:45:06,VALID,919.434,VALID,0.0,VALID,99.91,VALID,0.016,VALID,20.38,INVALID,360.0,VALID,0.0,
2019-09-09, 00:46:06,VALID,919.438,VALID,0.0,VALID,99.899,VALID,0.018,VALID,20.381,INVALID,360.0,VALID,0.0,
2019-09-09, 00:47:06,VALID,919.443,VALID,0.0,VALID,99.911,VALID,0.006,VALID,20.39,INVALID,360.0,VALID,0.0,
2019-09-09, 00:48:06,VALID,919.424,VALID,0.0,VALID,99.916,VALID,0.021,VALID,20.394,INVALID,360.0,VALID,0.0,
2019-09-09, 00:49:06,VALID,919.42,VALID,0.0,VALID,99.913,VALID,0.013,VALID,20.388,INVALID,360.0,VALID,0.0,
2019-09-09, 00:50:06,VALID,919.398,VALID,0.0,VALID,99.914,VALID,0.016,VALID,20.417,INVALID,360.0,VALID,0.0,
2019-09-09, 00:51:06,VALID,919.397,VALID,0.0,VALID,99.912,VALID,0.044,VALID,20.444,INVALID,360.0,VALID,0.0,
2019-09-09, 00:52:06,VALID,919.355,VALID,0.0,VALID,99.902,VALID,0.034,VALID,20.422,INVALID,360.0,VALID,0.0,
2019-09-09, 00:53:06,VALID,919.349,VALID,0.0,VALID,99.911,VALID,0.016,VALID,20.411,INVALID,360.0,VALID,0.0,
2019-09-09, 00:54:06,VALID,919.326,VALID,0.0,VALID,99.917,VALID,0.042,VALID,20.424,INVALID,360.0,VALID,0.0,
2019-09-09, 00:55:06,VALID,919.325,VALID,0.0,VALID,99.919,VALID,0.029,VALID,20.427,INVALID,360.0,VALID,0.0,
2019-09-09, 00:56:06,VALID,919.311,VALID,0.0,VALID,99.904,VALID,0.041,VALID,20.46,INVALID,360.0,VALID,0.0,
2019-09-09, 00:57:06,VALID,919.304,VALID,0.0,VALID,99.915,VALID,0.026,VALID,20.462,INVALID,360.0,VALID,0.0,
2019-09-09, 00:58:06,VALID,919.31,VALID,0.0,VALID,99.918,VALID,0.018,VALID,20.42,INVALID,360.0,VALID,0.0,
2019-09-09, 00:59:06,VALID,919.314,VALID,0.0,VALID,99.918,VALID,0.036,VALID,20.398,INVALID,360.0,VALID,0.0,
2019-09-09, 01:00:06,VALID,919.309,VALID,0.0,VALID,99.92,VALID,0.021,VALID,20.395,INVALID,360.0,VALID,0.0,
2019-09-09, 01:01:06,VALID,919.305,VALID,0.0,VALID,99.919,VALID,0.028,VALID,20.431,INVALID,360.0,VALID,0.0,
2019-09-09, 01:02:06,VALID,919.3,VALID,0.0,VALID,99.913,VALID,0.034,VALID,20.461,INVALID,360.0,VALID,0.0,
2019-09-09, 01:03:06,VALID,919.292,VALID,0.0,VALID,99.919,VALID,0.032,VALID,20.49,INVALID,360.0,VALID,0.0,
2019-09-09, 01:04:06,VALID,919.276,VALID,0.0,VALID,99.912,VALID,0.027,VALID,20.453,INVALID,360.0,VALID,0.0,
2019-09-09, 01:05:06,VALID,919.282,VALID,0.0,VALID,99.92,VALID,0.018,VALID,20.463,INVALID,360.0,VALID,0.0,
2019-09-09, 01:06:06,VALID,919.255,VALID,0.0,VALID,99.916,VALID,0.028,VALID,20.47,INVALID,360.0,VALID,0.0,
2019-09-09, 01:07:06,VALID,919.203,VALID,0.0,VALID,99.916,VALID,0.019,VALID,20.497,INVALID,360.0,VALID,0.0,
2019-09-09, 01:08:06,VALID,919.18,VALID,0.0,VALID,99.916,VALID,0.016,VALID,20.525,INVALID,360.0,VALID,0.0,
2019-09-09, 01:09:06,VALID,919.13,VALID,0.0,VALID,99.92,VALID,0.03,VALID,20.536,INVALID,360.0,VALID,0.0,
2019-09-09, 01:10:06,VALID,919.102,VALID,0.0,VALID,99.912,VALID,0.005,VALID,20.522,INVALID,360.0,VALID,0.0,
2019-09-09, 01:11:06,VALID,919.075,VALID,0.0,VALID,99.911,VALID,0.016,VALID,20.502,INVALID,360.0,VALID,0.0,
2019-09-09, 01:12:06,VALID,919.049,VALID,0.0,VALID,99.918,VALID,0.02,VALID,20.459,INVALID,360.0,VALID,0.0,
2019-09-09, 01:13:06,VALID,919.032,VALID,0.0,VALID,99.919,VALID,0.016,VALID,20.456,INVALID,360.0,VALID,0.0,
2019-09-09, 01:14:06,VALID,919.015,VALID,0.0,VALID,99.911,VALID,0.007,VALID,20.449,INVALID,360.0,VALID,0.0,
2019-09-09, 01:15:06,VALID,919.001,VALID,0.0,VALID,99.918,VALID,0.019,VALID,20.45,INVALID,360.0,VALID,0.0,
2019-09-09, 01:16:06,VALID,918.99,VALID,0.0,VALID,99.917,VALID,0.004,VALID,20.44,INVALID,360.0,VALID,0.0,
2019-09-09, 01:17:06,VALID,918.976,VALID,0.0,VALID,99.919,VALID,0.009,VALID,20.457,INVALID,360.0,VALID,0.0,
2019-09-09, 01:18:06,VALID,918.953,VALID,0.0,VALID,99.915,VALID,0.015,VALID,20.466,INVALID,360.0,VALID,0.0,
2019-09-09, 01:19:06,VALID,918.92,VALID,0.0,VALID,99.916,VALID,0.019,VALID,20.474,INVALID,360.0,VALID,0.0,
2019-09-09, 01:20:06,VALID,918.897,VALID,0.0,VALID,99.914,VALID,-0.005,VALID,20.462,INVALID,360.0,VALID,0.0,
2019-09-09, 01:21:06,VALID,918.867,VALID,0.0,VALID,99.916,VALID,-0.005,VALID,20.475,INVALID,360.0,VALID,0.0,
2019-09-09, 01:22:06,VALID,918.835,VALID,0.0,VALID,99.918,VALID,-0.01,VALID,20.485,INVALID,360.0,VALID,0.0,
2019-09-09, 01:23:06,VALID,918.79,VALID,0.0,VALID,99.917,VALID,-0.008,VALID,20.459,INVALID,360.0,VALID,0.0,
2019-09-09, 01:24:06,VALID,918.755,VALID,0.0,VALID,99.92,VALID,0.017,VALID,20.414,INVALID,360.0,VALID,0.0,
2019-09-09, 01:25:06,VALID,918.713,VALID,0.0,VALID,99.917,VALID,-0.026,VALID,20.411,INVALID,360.0,VALID,0.0,
2019-09-09, 01:26:06,VALID,918.687,VALID,0.0,VALID,99.915,VALID,-0.02,VALID,20.39,INVALID,360.0,VALID,0.0,
2019-09-09, 01:27:06,VALID,918.67,VALID,0.0,VALID,99.917,VALID,-0.006,VALID,20.372,INVALID,360.0,VALID,0.0,
2019-09-09, 01:28:06,VALID,918.668,VALID,0.0,VALID,99.917,VALID,0.013,VALID,20.324,INVALID,360.0,VALID,0.0,
2019-09-09, 01:29:06,VALID,918.673,VALID,0.0,VALID,99.916,VALID,-0.016,VALID,20.29,INVALID,360.0,VALID,0.0,
2019-09-09, 01:30:06,VALID,918.684,VALID,0.0,VALID,99.919,VALID,-0.025,VALID,20.266,INVALID,360.0,VALID,0.0,
2019-09-09, 01:31:06,VALID,918.678,VALID,0.0,VALID,99.917,VALID,-0.019,VALID,20.252,INVALID,360.0,VALID,0.0,
2019-09-09, 01:32:06,VALID,918.692,VALID,0.0,VALID,99.916,VALID,-0.009,VALID,20.291,INVALID,360.0,VALID,0.0,
2019-09-09, 01:33:06,VALID,918.677,VALID,0.0,VALID,99.914,VALID,-0.002,VALID,20.246,INVALID,360.0,VALID,0.0,
2019-09-09, 01:34:06,VALID,918.67,VALID,0.0,VALID,99.919,VALID,0.003,VALID,20.209,INVALID,360.0,VALID,0.0,
2019-09-09, 01:35:06,VALID,918.653,VALID,0.0,VALID,99.912,VALID,-0.029,VALID,20.16,INVALID,360.0,VALID,0.0,
2019-09-09, 01:36:06,VALID,918.625,VALID,0.0,VALID,99.914,VALID,-0.029,VALID,20.114,INVALID,360.0,VALID,0.0,
2019-09-09, 01:37:06,VALID,918.613,VALID,0.0,VALID,99.916,VALID,-0.026,VALID,20.073,INVALID,360.0,VALID,0.0,
2019-09-09, 01:38:06,VALID,918.625,VALID,0.0,VALID,99.915,VALID,-0.031,VALID,20.059,INVALID,360.0,VALID,0.0,
2019-09-09, 01:39:06,VALID,918.61,VALID,0.0,VALID,99.916,VALID,-0.025,VALID,20.049,INVALID,360.0,VALID,0.0,
2019-09-09, 01:40:06,VALID,918.614,VALID,0.0,VALID,99.915,VALID,-0.028,VALID,20.037,INVALID,360.0,VALID,0.0,
2019-09-09, 01:41:06,VALID,918.61,VALID,0.0,VALID,99.907,VALID,-0.034,VALID,20.018,INVALID,360.0,VALID,0.0,
2019-09-09, 01:42:06,VALID,918.597,VALID,0.0,VALID,99.914,VALID,-0.032,VALID,20.026,INVALID,360.0,VALID,0.0,
2019-09-09, 01:43:06,VALID,918.592,VALID,0.0,VALID,99.913,VALID,-0.033,VALID,20.033,INVALID,360.0,VALID,0.0,
2019-09-09, 01:44:06,VALID,918.56,VALID,0.0,VALID,99.913,VALID,-0.031,VALID,19.999,INVALID,360.0,VALID,0.0,
2019-09-09, 01:45:06,VALID,918.541,VALID,0.0,VALID,99.915,VALID,-0.019,VALID,19.996,INVALID,360.0,VALID,0.0,
2019-09-09, 01:46:06,VALID,918.527,VALID,0.0,VALID,99.917,VALID,-0.013,VALID,19.996,INVALID,360.0,VALID,0.0,
2019-09-09, 01:47:06,VALID,918.527,VALID,0.0,VALID,99.914,VALID,-0.047,VALID,19.99,INVALID,360.0,VALID,0.0,
2019-09-09, 01:48:06,VALID,918.508,VALID,0.0,VALID,99.914,VALID,-0.019,VALID,20.002,INVALID,360.0,VALID,0.0,
2019-09-09, 01:49:06,VALID,918.523,VALID,0.0,VALID,99.913,VALID,-0.017,VALID,20.035,INVALID,360.0,VALID,0.0,
2019-09-09, 01:50:06,VALID,918.539,VALID,0.0,VALID,99.918,VALID,0.005,VALID,20.067,INVALID,360.0,VALID,0.0,
2019-09-09, 01:51:06,VALID,918.525,VALID,0.0,VALID,99.916,VALID,0.004,VALID,20.107,INVALID,360.0,VALID,0.0,
2019-09-09, 01:52:06,VALID,918.522,VALID,0.0,VALID,99.915,VALID,0.0,VALID,20.116,INVALID,360.0,VALID,0.0,
2019-09-09, 01:53:06,VALID,918.501,VALID,0.0,VALID,99.914,VALID,0.002,VALID,20.116,INVALID,360.0,VALID,0.0,
2019-09-09, 01:54:06,VALID,918.478,VALID,0.0,VALID,99.916,VALID,0.007,VALID,20.087,INVALID,360.0,VALID,0.0,
2019-09-09, 01:55:06,VALID,918.449,VALID,0.0,VALID,99.914,VALID,0.006,VALID,20.096,INVALID,360.0,VALID,0.0,
2019-09-09, 01:56:06,VALID,918.445,VALID,0.0,VALID,99.917,VALID,-0.007,VALID,20.091,INVALID,360.0,VALID,0.0,
2019-09-09, 01:57:06,VALID,918.415,VALID,0.0,VALID,99.913,VALID,-0.007,VALID,20.086,INVALID,360.0,VALID,0.0,
2019-09-09, 01:58:06,VALID,918.423,VALID,0.0,VALID,99.914,VALID,0.005,VALID,20.098,INVALID,360.0,VALID,0.0,
2019-09-09, 01:59:06,VALID,918.431,VALID,0.0,VALID,99.918,VALID,-0.009,VALID,20.111,INVALID,360.0,VALID,0.0,
2019-09-09, 02:00:06,VALID,918.41,VALID,0.0,VALID,99.916,VALID,0.007,VALID,20.111,INVALID,360.0,VALID,0.0,
2019-09-09, 02:01:06,VALID,918.409,VALID,0.0,VALID,99.914,VALID,-0.001,VALID,20.127,INVALID,360.0,VALID,0.0,
2019-09-09, 02:02:06,VALID,918.398,VALID,0.0,VALID,99.916,VALID,-0.009,VALID,20.13,VALID,54.0,VALID,0.0,
2019-09-09, 02:03:06,VALID,918.411,VALID,0.0,VALID,99.916,VALID,-0.01,VALID,20.164,VALID,53.0,VALID,0.0,
2019-09-09, 02:04:06,VALID,918.391,VALID,0.0,VALID,99.916,VALID,0.006,VALID,20.147,INVALID,360.0,VALID,0.0,
2019-09-09, 02:05:06,VALID,918.369,VALID,0.0,VALID,99.917,VALID,-0.003,VALID,20.137,INVALID,360.0,VALID,0.0,
2019-09-09, 02:06:06,VALID,918.346,VALID,0.0,VALID,99.914,VALID,0.001,VALID,20.154,INVALID,360.0,VALID,0.0,
2019-09-09, 02:07:06,VALID,918.323,VALID,0.0,VALID,99.915,VALID,-0.004,VALID,20.163,INVALID,360.0,VALID,0.0,
2019-09-09, 02:08:06,VALID,918.302,VALID,0.0,VALID,99.914,VALID,-0.005,VALID,20.158,INVALID,360.0,VALID,0.0,
2019-09-09, 02:09:06,VALID,918.293,VALID,0.0,VALID,99.916,VALID,0.009,VALID,20.139,INVALID,360.0,VALID,0.0,
2019-09-09, 02:10:06,VALID,918.3,VALID,0.0,VALID,99.917,VALID,-0.013,VALID,20.126,INVALID,360.0,VALID,0.0,
2019-09-09, 02:11:06,VALID,918.294,VALID,0.0,VALID,99.917,VALID,-0.012,VALID,20.12,INVALID,360.0,VALID,0.0,
2019-09-09, 02:12:06,VALID,918.282,VALID,0.0,VALID,99.915,VALID,0.003,VALID,20.092,INVALID,360.0,VALID,0.0,
2019-09-09, 02:13:06,VALID,918.276,VALID,0.0,VALID,99.916,VALID,0.009,VALID,20.094,INVALID,360.0,VALID,0.0,
2019-09-09, 02:14:06,VALID,918.268,VALID,0.0,VALID,99.915,VALID,-0.002,VALID,20.088,INVALID,360.0,VALID,0.0,
2019-09-09, 02:15:06,VALID,918.227,VALID,0.0,VALID,99.914,VALID,-0.002,VALID,20.131,INVALID,360.0,VALID,0.0,
2019-09-09, 02:16:06,VALID,918.233,VALID,0.0,VALID,99.914,VALID,0.012,VALID,20.108,INVALID,360.0,VALID,0.0,
2019-09-09, 02:17:06,VALID,918.207,VALID,0.0,VALID,99.914,VALID,0.008,VALID,20.14,INVALID,360.0,VALID,0.0,
2019-09-09, 02:18:06,VALID,918.218,VALID,0.0,VALID,99.92,VALID,0.007,VALID,20.155,INVALID,360.0,VALID,0.0,
2019-09-09, 02:19:06,VALID,918.236,VALID,0.0,VALID,99.913,VALID,-0.003,VALID,20.133,INVALID,360.0,VALID,0.0,
2019-09-09, 02:20:06,VALID,918.219,VALID,0.0,VALID,99.919,VALID,0.009,VALID,20.145,INVALID,360.0,VALID,0.0,
2019-09-09, 02:21:06,VALID,918.226,VALID,0.0,VALID,99.914,VALID,-0.01,VALID,20.143,INVALID,360.0,VALID,0.0,
2019-09-09, 02:22:06,VALID,918.24,VALID,0.0,VALID,99.915,VALID,-0.011,VALID,20.154,INVALID,360.0,VALID,0.0,
2019-09-09, 02:23:06,VALID,918.251,VALID,0.0,VALID,99.917,VALID,-0.001,VALID,20.116,INVALID,360.0,VALID,0.0,
2019-09-09, 02:24:06,VALID,918.258,VALID,0.0,VALID,99.917,VALID,0.002,VALID,20.059,INVALID,360.0,VALID,0.0,
2019-09-09, 02:25:06,VALID,918.24,VALID,0.0,VALID,99.915,VALID,0.0,VALID,20.078,INVALID,360.0,VALID,0.0,
2019-09-09, 02:26:06,VALID,918.253,VALID,0.0,VALID,99.916,VALID,-0.01,VALID,20.114,INVALID,360.0,VALID,0.0,
2019-09-09, 02:27:06,VALID,918.238,VALID,0.0,VALID,99.915,VALID,0.002,VALID,20.136,VALID,54.0,VALID,0.0,
2019-09-09, 02:28:06,VALID,918.27,VALID,0.0,VALID,99.914,VALID,-0.008,VALID,20.169,INVALID,360.0,VALID,0.0,
2019-09-09, 02:29:06,VALID,918.271,VALID,0.0,VALID,99.919,VALID,-0.005,VALID,20.133,INVALID,360.0,VALID,0.0,
2019-09-09, 02:30:06,VALID,918.295,VALID,0.0,VALID,99.915,VALID,0.005,VALID,20.078,INVALID,360.0,VALID,0.0,
2019-09-09, 02:31:06,VALID,918.295,VALID,0.0,VALID,99.916,VALID,0.005,VALID,20.082,INVALID,360.0,VALID,0.0,
2019-09-09, 02:32:06,VALID,918.301,VALID,0.0,VALID,99.913,VALID,-0.002,VALID,20.09,INVALID,360.0,VALID,0.0,
2019-09-09, 02:33:06,VALID,918.299,VALID,0.0,VALID,99.915,VALID,-0.008,VALID,20.128,INVALID,360.0,VALID,0.0,
2019-09-09, 02:34:06,VALID,918.298,VALID,0.0,VALID,99.916,VALID,0.017,VALID,20.093,INVALID,360.0,VALID,0.0,
2019-09-09, 02:35:06,VALID,918.295,VALID,0.0,VALID,99.915,VALID,-0.049,VALID,20.077,INVALID,360.0,VALID,0.0,
2019-09-09, 02:36:06,VALID,918.323,VALID,0.0,VALID,99.915,VALID,-0.071,VALID,20.082,INVALID,360.0,VALID,0.0,
2019-09-09, 02:37:06,VALID,918.304,VALID,0.0,VALID,99.915,VALID,-0.04,VALID,20.067,INVALID,360.0,VALID,0.0,
2019-09-09, 02:38:06,VALID,918.302,VALID,0.0,VALID,99.915,VALID,-0.043,VALID,20.035,INVALID,360.0,VALID,0.0,
2019-09-09, 02:39:06,VALID,918.285,VALID,0.0,VALID,99.914,VALID,-0.063,VALID,20.033,INVALID,360.0,VALID,0.0,
2019-09-09, 02:40:06,VALID,918.276,VALID,0.0,VALID,99.915,VALID,-0.054,VALID,20.016,INVALID,360.0,VALID,0.0,
2019-09-09, 02:41:06,VALID,918.253,VALID,0.0,VALID,99.914,VALID,-0.061,VALID,20.024,INVALID,360.0,VALID,0.0,
2019-09-09, 02:42:06,VALID,918.225,VALID,0.0,VALID,99.917,VALID,-0.049,VALID,20.032,INVALID,360.0,VALID,0.0,
2019-09-09, 02:43:06,VALID,918.229,VALID,0.0,VALID,99.916,VALID,-0.055,VALID,20.054,INVALID,360.0,VALID,0.0,
2019-09-09, 02:44:06,VALID,918.201,VALID,0.0,VALID,99.914,VALID,-0.05,VALID,20.025,INVALID,360.0,VALID,0.0,
2019-09-09, 02:45:06,VALID,918.194,VALID,0.0,VALID,99.915,VALID,-0.036,VALID,19.956,INVALID,360.0,VALID,0.0,
2019-09-09, 02:46:06,VALID,918.188,VALID,0.0,VALID,99.916,VALID,-0.051,VALID,19.954,INVALID,360.0,VALID,0.0,
2019-09-09, 02:47:06,VALID,918.184,VALID,0.0,VALID,99.916,VALID,-0.064,VALID,19.956,VALID,50.0,VALID,0.0,
2019-09-09, 02:48:06,VALID,918.193,VALID,0.0,VALID,99.913,VALID,-0.051,VALID,19.969,INVALID,360.0,VALID,0.0,
2019-09-09, 02:49:06,VALID,918.195,VALID,0.0,VALID,99.913,VALID,-0.063,VALID,19.959,INVALID,360.0,VALID,0.0,
2019-09-09, 02:50:06,VALID,918.203,VALID,0.0,VALID,99.915,VALID,0.008,VALID,19.963,INVALID,360.0,VALID,0.0,
2019-09-09, 02:51:06,VALID,918.199,VALID,0.0,VALID,99.915,VALID,-0.006,VALID,19.962,INVALID,360.0,VALID,0.0,
2019-09-09, 02:52:06,VALID,918.194,VALID,0.0,VALID,99.912,VALID,-0.001,VALID,19.999,INVALID,360.0,VALID,0.0,
2019-09-09, 02:53:06,VALID,918.181,VALID,0.0,VALID,99.913,VALID,-0.004,VALID,20.038,INVALID,360.0,VALID,0.0,
2019-09-09, 02:54:06,VALID,918.173,VALID,0.0,VALID,99.914,VALID,0.004,VALID,19.983,INVALID,360.0,VALID,0.0,
2019-09-09, 02:55:06,VALID,918.153,VALID,0.0,VALID,99.914,VALID,0.001,VALID,19.949,INVALID,360.0,VALID,0.0,
2019-09-09, 02:56:06,VALID,918.116,VALID,0.0,VALID,99.913,VALID,-0.009,VALID,19.93,INVALID,360.0,VALID,0.0,
2019-09-09, 02:57:06,VALID,918.088,VALID,0.0,VALID,99.913,VALID,-0.01,VALID,19.967,INVALID,360.0,VALID,0.0,
2019-09-09, 02:58:06,VALID,918.048,VALID,0.0,VALID,99.916,VALID,-0.006,VALID,20.005,INVALID,360.0,VALID,0.0,
2019-09-09, 02:59:06,VALID,918.022,VALID,0.0,VALID,99.913,VALID,-0.019,VALID,19.959,INVALID,360.0,VALID,0.0,
2019-09-09, 03:00:06,VALID,917.979,VALID,0.0,VALID,99.915,VALID,0.005,VALID,19.908,INVALID,360.0,VALID,0.0,
2019-09-09, 03:01:06,VALID,917.958,VALID,0.0,VALID,99.912,VALID,-0.011,VALID,19.914,INVALID,360.0,VALID,0.0,
2019-09-09, 03:02:06,VALID,917.985,VALID,0.0,VALID,99.913,VALID,-0.012,VALID,19.919,INVALID,360.0,VALID,0.0,
2019-09-09, 03:03:06,VALID,917.985,VALID,0.0,VALID,99.913,VALID,-0.004,VALID,19.891,INVALID,360.0,VALID,0.0,
2019-09-09, 03:04:06,VALID,918.005,VALID,0.0,VALID,99.913,VALID,-0.007,VALID,19.897,INVALID,360.0,VALID,0.0,
2019-09-09, 03:05:06,VALID,918.025,VALID,0.0,VALID,99.92,VALID,-0.016,VALID,19.874,INVALID,360.0,VALID,0.0,
2019-09-09, 03:06:06,VALID,918.039,VALID,0.0,VALID,99.915,VALID,-0.028,VALID,19.864,INVALID,360.0,VALID,0.0,
2019-09-09, 03:07:06,VALID,918.038,VALID,0.0,VALID,99.914,VALID,-0.028,VALID,19.887,INVALID,360.0,VALID,0.0,
2019-09-09, 03:08:06,VALID,918.038,VALID,0.0,VALID,99.913,VALID,-0.017,VALID,19.87,INVALID,360.0,VALID,0.0,
2019-09-09, 03:09:06,VALID,918.038,VALID,0.0,VALID,99.914,VALID,-0.016,VALID,19.868,INVALID,360.0,VALID,0.0,
2019-09-09, 03:10:06,VALID,918.036,VALID,0.0,VALID,99.914,VALID,-0.032,VALID,19.872,INVALID,360.0,VALID,0.0,
2019-09-09, 03:11:06,VALID,918.037,VALID,0.0,VALID,99.914,VALID,-0.025,VALID,19.883,INVALID,360.0,VALID,0.0,
2019-09-09, 03:12:06,VALID,918.065,VALID,0.0,VALID,99.914,VALID,-0.06,VALID,19.864,INVALID,360.0,VALID,0.0,
2019-09-09, 03:13:06,VALID,918.051,VALID,0.0,VALID,99.914,VALID,-0.035,VALID,19.864,VALID,49.0,VALID,0.0,
2019-09-09, 03:14:06,VALID,918.05,VALID,0.0,VALID,99.911,VALID,-0.041,VALID,19.842,INVALID,360.0,VALID,0.0,
2019-09-09, 03:15:06,VALID,918.059,VALID,0.0,VALID,99.912,VALID,-0.035,VALID,19.824,INVALID,360.0,VALID,0.0,
2019-09-09, 03:16:06,VALID,918.055,VALID,0.0,VALID,99.915,VALID,-0.053,VALID,19.81,INVALID,360.0,VALID,0.0,
2019-09-09, 03:17:06,VALID,918.042,VALID,0.0,VALID,99.912,VALID,-0.038,VALID,19.798,INVALID,360.0,VALID,0.0,
2019-09-09, 03:18:06,VALID,918.047,VALID,0.0,VALID,99.912,VALID,-0.018,VALID,19.809,INVALID,360.0,VALID,0.0,
2019-09-09, 03:19:06,VALID,918.041,VALID,0.0,VALID,99.913,VALID,-0.028,VALID,19.812,INVALID,360.0,VALID,0.0,
2019-09-09, 03:20:06,VALID,918.042,VALID,0.0,VALID,99.917,VALID,-0.014,VALID,19.793,INVALID,360.0,VALID,0.0,
2019-09-09, 03:21:06,VALID,918.045,VALID,0.0,VALID,99.912,VALID,0.007,VALID,19.773,INVALID,360.0,VALID,0.0,
2019-09-09, 03:22:06,VALID,918.031,VALID,0.0,VALID,99.915,VALID,-0.005,VALID,19.752,INVALID,360.0,VALID,0.0,
2019-09-09, 03:23:06,VALID,918.04,VALID,0.0,VALID,99.911,VALID,0.01,VALID,19.742,INVALID,360.0,VALID,0.0,
2019-09-09, 03:24:06,VALID,918.05,VALID,0.0,VALID,99.912,VALID,-0.002,VALID,19.735,INVALID,360.0,VALID,0.0,
2019-09-09, 03:25:06,VALID,918.031,VALID,0.0,VALID,99.911,VALID,-0.003,VALID,19.738,INVALID,360.0,VALID,0.0,
2019-09-09, 03:26:06,VALID,918.032,VALID,0.0,VALID,99.912,VALID,-0.016,VALID,19.768,INVALID,360.0,VALID,0.0,
2019-09-09, 03:27:06,VALID,918.026,VALID,0.0,VALID,99.912,VALID,0.017,VALID,19.77,INVALID,360.0,VALID,0.0,
2019-09-09, 03:28:06,VALID,918.028,VALID,0.0,VALID,99.914,VALID,-0.001,VALID,19.759,INVALID,360.0,VALID,0.0,
2019-09-09, 03:29:06,VALID,918.029,VALID,0.0,VALID,99.913,VALID,-0.01,VALID,19.754,INVALID,360.0,VALID,0.0,
2019-09-09, 03:30:06,VALID,918.016,VALID,0.0,VALID,99.911,VALID,-0.01,VALID,19.754,INVALID,360.0,VALID,0.0,
2019-09-09, 03:31:06,VALID,918.008,VALID,0.0,VALID,99.914,VALID,-0.009,VALID,19.77,INVALID,360.0,VALID,0.0,
2019-09-09, 03:32:06,VALID,917.999,VALID,0.0,VALID,99.912,VALID,0.008,VALID,19.803,INVALID,360.0,VALID,0.0,
2019-09-09, 03:33:06,VALID,917.983,VALID,0.0,VALID,99.913,VALID,0.009,VALID,19.82,INVALID,360.0,VALID,0.0,
2019-09-09, 03:34:06,VALID,917.984,VALID,0.0,VALID,99.913,VALID,0.001,VALID,19.813,INVALID,360.0,VALID,0.0,
2019-09-09, 03:35:06,VALID,917.982,VALID,0.0,VALID,99.914,VALID,-0.037,VALID,19.808,INVALID,360.0,VALID,0.0,
2019-09-09, 03:36:06,VALID,917.969,VALID,0.0,VALID,99.914,VALID,-0.022,VALID,19.806,INVALID,360.0,VALID,0.0,
2019-09-09, 03:37:06,VALID,917.973,VALID,0.0,VALID,99.912,VALID,-0.012,VALID,19.745,INVALID,360.0,VALID,0.0,
2019-09-09, 03:38:06,VALID,917.978,VALID,0.0,VALID,99.91,VALID,-0.018,VALID,19.705,INVALID,360.0,VALID,0.0,